sat.trackr.live / text

‹ back to catalog

STARLINK-11307 [DTC]

NORAD 61210 · 2024-171L

PAYLOAD ACTIVE UNKNOWN

§ Identity

Operator
Country
US
Launch date
2024-09-20
Launch site
AFWTR
Launch vehicle
Mass (kg)
RCS (m²)

Purposes: comms

External: N2YO · Heavens-Above · Gunter

§ Orbital elements

Epoch: 2026-09-21T08:15:49.594464Z

Period
91.74 min
Inclination
53.1596°
Eccentricity
0.0001690
Mean motion
15.69714420 rev/d
Perigee alt
358.6 km
Apogee alt
360.9 km
Semi-major
6,737.9 km
B*
-1.4525e-5
RAAN
292.1083°
Arg perigee
100.5625°
Mean anomaly
259.5584°
Rev number
11,512

§ Raw data

STARLINK-11307 [DTC]1 61210U 24171L   26264.34432401 -.00002349  00000+0 -14525-4 0  99962 61210  53.1596 292.1083 0001690 100.5625 259.5584 15.69714420115128

JSON: /api/v1/satellites/61210 · /tle

For live sub-satellite position, see the globe view (requires WebGL).

§ Visibility from observer

Set your observer location to see the next 7 days of passes ≥ 10°. The values pass through the URL so the page stays shareable.

No JS? Fill the form by hand. The geolocation button needs JavaScript.